Time,TemperatureF,DewpointF,PressureIn,WindDirection,WindDirectionDegrees,WindSpeedMPH,WindSpeedGustMPH,Humidity,HourlyPrecipIn,Conditions,Clouds,dailyrainin,SoftwareType,DateUTC
2013-12-03 00:01:00,49.1,28.0,29.95,South,180,0.0,0.0,44,0.00,,,0.00,WUHU216HW,2013-12-03 05:01:00,
2013-12-03 00:02:00,49.1,28.0,29.95,South,180,0.0,0.0,44,0.00,,,0.00,WUHU216HW,2013-12-03 05:02:00,
2013-12-03 00:08:00,49.0,27.9,29.95,SSE,158,0.9,1.1,44,0.00,,,0.00,WUHU216HW,2013-12-03 05:08:00,
2013-12-03 00:13:00,49.0,27.3,29.94,SSE,158,0.4,1.1,43,0.00,,,0.00,WUHU216HW,2013-12-03 05:13:00,
2013-12-03 00:18:00,48.8,27.2,29.94,SSE,158,0.7,0.9,43,0.00,,,0.00,WUHU216HW,2013-12-03 05:18:00,
2013-12-03 00:23:00,48.6,27.0,29.94,ESE,113,0.0,0.9,43,0.00,,,0.00,WUHU216HW,2013-12-03 05:23:00,
2013-12-03 00:28:00,48.6,26.5,29.94,ESE,113,0.0,0.9,42,0.00,,,0.00,WUHU216HW,2013-12-03 05:28:00,
2013-12-03 00:33:00,48.6,26.5,29.94,ESE,113,0.0,0.0,42,0.00,,,0.00,WUHU216HW,2013-12-03 05:33:00,
2013-12-03 00:38:00,48.6,25.9,29.94,ESE,113,0.0,0.0,41,0.00,,,0.00,WUHU216HW,2013-12-03 05:38:00,
2013-12-03 00:43:00,48.4,26.3,29.94,ESE,113,0.0,0.0,42,0.00,,,0.00,WUHU216HW,2013-12-03 05:43:00,
2013-12-03 00:48:00,48.2,26.1,29.94,SE,135,0.0,0.0,42,0.00,,,0.00,WUHU216HW,2013-12-03 05:48:00,
2013-12-03 00:53:00,48.2,26.1,29.94,SE,135,0.0,0.0,42,0.00,,,0.00,WUHU216HW,2013-12-03 05:53:00,
2013-12-03 00:59:00,47.9,25.2,29.93,SSE,158,1.1,1.1,41,0.00,,,0.00,WUHU216HW,2013-12-03 05:59:00,
2013-12-03 01:04:00,47.5,24.4,29.94,South,180,1.1,1.1,40,0.00,,,0.00,WUHU216HW,2013-12-03 06:04:00,
2013-12-03 01:09:00,47.3,23.6,29.94,South,180,0.9,1.8,39,0.00,,,0.00,WUHU216HW,2013-12-03 06:09:00,
2013-12-03 01:14:00,47.3,22.9,29.94,WSW,248,0.4,1.8,38,0.00,,,0.00,WUHU216HW,2013-12-03 06:14:00,
2013-12-03 01:19:00,47.5,22.4,29.94,West,270,0.9,1.1,37,0.00,,,0.00,WUHU216HW,2013-12-03 06:19:00,
2013-12-03 01:24:00,47.5,22.4,29.94,WSW,248,0.8,1.1,37,0.00,,,0.00,WUHU216HW,2013-12-03 06:24:00,
2013-12-03 01:29:00,47.5,22.4,29.94,WSW,248,0.0,0.9,37,0.00,,,0.00,WUHU216HW,2013-12-03 06:29:00,
2013-12-03 01:34:00,47.5,21.7,29.94,South,180,0.4,0.7,36,0.00,,,0.00,WUHU216HW,2013-12-03 06:34:00,
2013-12-03 01:39:00,47.5,20.3,29.94,WSW,240,0.5,1.6,34,0.00,,,0.00,WUHU216HW,2013-12-03 06:39:00,
2013-12-03 01:44:00,47.5,19.7,29.94,WSW,248,0.5,1.6,33,0.00,,,0.00,WUHU216HW,2013-12-03 06:44:00,
2013-12-03 01:50:00,47.9,18.7,29.95,NW,315,0.0,0.7,31,0.00,,,0.00,WUHU216HW,2013-12-03 06:50:00,
2013-12-03 01:55:00,48.2,19.7,29.95,WNW,293,0.0,0.4,32,0.00,,,0.00,WUHU216HW,2013-12-03 06:55:00,
2013-12-03 02:00:00,48.2,20.3,29.94,WNW,293,0.0,0.0,33,0.00,,,0.00,WUHU216HW,2013-12-03 07:00:00,
2013-12-03 02:05:00,48.2,20.3,29.95,WNW,293,0.0,0.0,33,0.00,,,0.00,WUHU216HW,2013-12-03 07:05:00,
2013-12-03 02:10:00,48.2,20.3,29.94,ESE,113,0.0,0.0,33,0.00,,,0.00,WUHU216HW,2013-12-03 07:10:00,
2013-12-03 02:15:00,48.2,21.1,29.94,SSE,158,0.0,0.7,34,0.00,,,0.00,WUHU216HW,2013-12-03 07:15:00,
2013-12-03 02:20:00,48.1,20.2,29.94,SSW,203,0.0,0.7,33,0.00,,,0.00,WUHU216HW,2013-12-03 07:20:00,
2013-12-03 02:25:00,48.1,20.2,29.94,SW,225,0.0,0.0,33,0.00,,,0.00,WUHU216HW,2013-12-03 07:25:00,
2013-12-03 02:30:00,48.1,19.5,29.94,South,180,0.0,0.0,32,0.00,,,0.00,WUHU216HW,2013-12-03 07:30:00,
2013-12-03 02:35:00,48.1,19.5,29.94,South,180,0.0,0.0,32,0.00,,,0.00,WUHU216HW,2013-12-03 07:35:00,
2013-12-03 02:40:00,48.1,19.5,29.94,South,180,0.9,1.1,32,0.00,,,0.00,WUHU216HW,2013-12-03 07:40:00,
2013-12-03 02:46:00,48.1,18.9,29.94,SSE,158,1.8,1.8,31,0.00,,,0.00,WUHU216HW,2013-12-03 07:46:00,
2013-12-03 02:51:00,48.1,18.9,29.94,South,188,0.7,1.8,31,0.00,,,0.00,WUHU216HW,2013-12-03 07:51:00,
2013-12-03 02:56:00,48.1,18.2,29.94,South,187,1.7,2.5,30,0.00,,,0.00,WUHU216HW,2013-12-03 07:56:00,
2013-12-03 03:01:00,48.1,17.3,29.94,SSE,165,1.2,2.5,29,0.00,,,0.00,WUHU216HW,2013-12-03 08:01:00,
2013-12-03 03:06:00,48.1,17.3,29.94,SSW,203,0.2,2.0,29,0.00,,,0.00,WUHU216HW,2013-12-03 08:06:00,
2013-12-03 03:11:00,48.2,17.5,29.94,SW,225,0.7,1.1,29,0.00,,,0.00,WUHU216HW,2013-12-03 08:11:00,
2013-12-03 03:16:00,48.2,16.5,29.94,SSE,158,0.4,0.7,28,0.00,,,0.00,WUHU216HW,2013-12-03 08:16:00,
2013-12-03 03:21:00,48.2,15.6,29.94,SSE,158,0.0,0.4,27,0.00,,,0.00,WUHU216HW,2013-12-03 08:21:00,
2013-12-03 03:26:00,48.2,15.6,29.94,SE,135,0.0,0.0,27,0.00,,,0.00,WUHU216HW,2013-12-03 08:26:00,
2013-12-03 03:31:00,48.2,15.6,29.94,South,180,0.9,0.9,27,0.00,,,0.00,WUHU216HW,2013-12-03 08:31:00,
2013-12-03 03:36:00,48.2,15.6,29.94,SSE,158,0.7,0.9,27,0.00,,,0.00,WUHU216HW,2013-12-03 08:36:00,
2013-12-03 03:41:00,48.2,13.7,29.94,South,180,0.9,0.9,25,0.00,,,0.00,WUHU216HW,2013-12-03 08:41:00,
2013-12-03 03:47:00,48.1,13.5,29.94,SW,225,0.0,0.9,25,0.00,,,0.00,WUHU216HW,2013-12-03 08:47:00,
2013-12-03 03:52:00,48.1,12.6,29.94,SSE,158,0.7,0.7,24,0.00,,,0.00,WUHU216HW,2013-12-03 08:52:00,
2013-12-03 03:57:00,48.1,11.7,29.93,SE,135,0.0,0.9,23,0.00,,,0.00,WUHU216HW,2013-12-03 08:57:00,
2013-12-03 04:02:00,48.1,11.7,29.93,South,180,0.0,0.9,23,0.00,,,0.00,WUHU216HW,2013-12-03 09:02:00,
2013-12-03 04:07:00,48.1,10.7,29.93,SSE,158,0.7,0.7,22,0.00,,,0.00,WUHU216HW,2013-12-03 09:07:00,
2013-12-03 04:12:00,47.9,9.6,29.94,SSW,205,0.9,1.3,21,0.00,,,0.00,WUHU216HW,2013-12-03 09:12:00,
2013-12-03 04:17:00,47.9,8.7,29.94,South,180,1.1,1.3,20,0.00,,,0.00,WUHU216HW,2013-12-03 09:17:00,
2013-12-03 04:22:00,47.9,8.7,29.93,South,180,1.3,1.8,20,0.00,,,0.00,WUHU216HW,2013-12-03 09:22:00,
2013-12-03 04:27:00,47.9,4.3,29.93,South,178,1.6,2.5,17,0.00,,,0.00,WUHU216HW,2013-12-03 09:27:00,
2013-12-03 04:32:00,47.9,4.3,29.93,SSE,158,1.1,2.5,17,0.00,,,0.00,WUHU216HW,2013-12-03 09:32:00,
2013-12-03 04:37:00,47.9,2.8,29.93,SSE,158,0.6,1.3,16,0.00,,,0.00,WUHU216HW,2013-12-03 09:37:00,
2013-12-03 04:42:00,47.9,4.3,29.93,SE,141,0.6,0.9,17,0.00,,,0.00,WUHU216HW,2013-12-03 09:42:00,
2013-12-03 04:47:00,47.9,4.3,29.94,SSE,158,0.0,0.9,17,0.00,,,0.00,WUHU216HW,2013-12-03 09:47:00,
2013-12-03 04:52:00,47.9,1.4,29.94,ESE,113,0.0,0.0,15,0.00,,,0.00,WUHU216HW,2013-12-03 09:52:00,
2013-12-03 04:58:00,47.9,1.4,29.94,ESE,113,0.0,0.4,15,0.00,,,0.00,WUHU216HW,2013-12-03 09:58:00,
2013-12-03 05:03:00,47.9,1.4,29.94,SE,135,0.0,0.4,15,0.00,,,0.00,WUHU216HW,2013-12-03 10:03:00,
2013-12-03 05:08:00,47.9,1.4,29.94,South,180,1.6,1.6,15,0.00,,,0.00,WUHU216HW,2013-12-03 10:08:00,
2013-12-03 05:13:00,47.7,1.2,29.94,South,180,1.3,1.6,15,0.00,,,0.00,WUHU216HW,2013-12-03 10:13:00,
2013-12-03 05:18:00,47.5,-0.4,29.95,SW,225,0.0,1.3,14,0.00,,,0.00,WUHU216HW,2013-12-03 10:18:00,
2013-12-03 05:23:00,47.5,-0.4,29.95,SSE,158,0.0,1.1,14,0.00,,,0.00,WUHU216HW,2013-12-03 10:23:00,
2013-12-03 05:28:00,47.7,-0.3,29.95,SSE,158,0.0,0.0,14,0.00,,,0.00,WUHU216HW,2013-12-03 10:28:00,
2013-12-03 05:33:00,47.5,-3.4,29.95,SSE,158,0.0,0.0,12,0.00,,,0.00,WUHU216HW,2013-12-03 10:33:00,
2013-12-03 05:38:00,47.7,-3.2,29.95,SSE,158,0.0,0.0,12,0.00,,,0.00,WUHU216HW,2013-12-03 10:38:00,
2013-12-03 05:43:00,47.7,-4.7,29.94,SE,135,0.0,0.0,11,0.00,,,0.00,WUHU216HW,2013-12-03 10:43:00,
2013-12-03 05:48:00,47.7,-4.7,29.95,SE,135,0.2,0.2,11,0.00,,,0.00,WUHU216HW,2013-12-03 10:48:00,
2013-12-03 05:53:00,47.7,-4.7,29.95,SSE,158,0.0,0.4,11,0.00,,,0.00,WUHU216HW,2013-12-03 10:53:00,
2013-12-03 05:58:00,47.9,-6.0,29.95,South,180,0.0,0.4,10,0.00,,,0.00,WUHU216HW,2013-12-03 10:58:00,
2013-12-03 06:04:00,47.9,-6.0,29.95,NE,45,0.0,0.0,8,0.00,,,0.00,WUHU216HW,2013-12-03 11:04:00,
2013-12-03 06:09:00,47.9,-6.0,29.96,NNE,23,0.4,0.9,6,0.00,,,0.00,WUHU216HW,2013-12-03 11:09:00,
2013-12-03 06:14:00,48.1,-5.9,29.96,SSE,158,0.7,0.9,7,0.00,,,0.00,WUHU216HW,2013-12-03 11:14:00,
2013-12-03 06:19:00,47.9,-6.0,29.96,South,180,1.1,1.1,7,0.00,,,0.00,WUHU216HW,2013-12-03 11:19:00,
2013-12-03 06:24:00,47.9,-6.0,29.96,SSE,158,1.3,1.6,8,0.00,,,0.00,WUHU216HW,2013-12-03 11:24:00,
2013-12-03 06:29:00,47.9,-6.0,29.96,SSW,203,0.7,1.6,7,0.00,,,0.00,WUHU216HW,2013-12-03 11:29:00,
2013-12-03 06:34:00,47.7,-6.2,29.96,SE,135,0.0,1.1,7,0.00,,,0.00,WUHU216HW,2013-12-03 11:34:00,
2013-12-03 06:39:00,47.7,-6.2,29.96,SE,135,0.4,0.4,7,0.00,,,0.00,WUHU216HW,2013-12-03 11:39:00,
2013-12-03 06:44:00,47.7,-6.2,29.95,SSE,158,0.9,1.1,7,0.00,,,0.00,WUHU216HW,2013-12-03 11:44:00,
2013-12-03 06:49:00,47.5,-6.3,29.95,South,180,0.7,1.1,7,0.00,,,0.00,WUHU216HW,2013-12-03 11:49:00,
2013-12-03 06:54:00,47.2,-6.7,29.95,SSE,158,0.5,0.9,8,0.00,,,0.00,WUHU216HW,2013-12-03 11:54:00,
2013-12-03 06:59:00,47.0,-6.7,29.95,ENE,68,0.4,0.7,6,0.00,,,0.00,WUHU216HW,2013-12-03 11:59:00,
2013-12-03 07:04:00,47.0,-6.7,29.96,North,0,1.1,1.1,5,0.00,,,0.00,WUHU216HW,2013-12-03 12:04:00,
2013-12-03 07:09:00,47.0,-6.7,29.96,NNE,25,1.2,1.3,1,0.00,,,0.00,WUHU216HW,2013-12-03 12:09:00,
2013-12-03 07:15:00,46.8,-6.9,29.96,ENE,68,1.1,1.3,1,0.00,,,0.00,WUHU216HW,2013-12-03 12:15:00,
2013-12-03 07:20:00,46.6,-7.0,29.97,ENE,68,0.0,1.1,1,0.00,,,0.00,WUHU216HW,2013-12-03 12:20:00,
2013-12-03 07:25:00,46.4,-7.2,29.97,ENE,68,0.0,1.1,1,0.00,,,0.00,WUHU216HW,2013-12-03 12:25:00,
2013-12-03 07:30:00,46.4,-7.2,29.97,ENE,68,0.0,0.0,1,0.00,,,0.00,WUHU216HW,2013-12-03 12:30:00,
2013-12-03 07:35:00,46.4,-7.2,29.97,ENE,68,0.0,0.0,1,0.00,,,0.00,WUHU216HW,2013-12-03 12:35:00,
2013-12-03 07:40:00,46.6,-7.0,29.97,ENE,68,0.0,0.4,1,0.00,,,0.00,WUHU216HW,2013-12-03 12:40:00,
2013-12-03 07:45:00,46.8,-6.9,29.97,ENE,68,0.0,0.4,1,0.00,,,0.00,WUHU216HW,2013-12-03 12:45:00,
2013-12-03 07:50:00,47.2,-6.7,29.97,East,90,0.0,0.0,1,0.00,,,0.00,WUHU216HW,2013-12-03 12:50:00,
2013-12-03 07:55:00,47.3,-6.5,29.97,SSE,158,1.6,1.6,1,0.00,,,0.00,WUHU216HW,2013-12-03 12:55:00,
2013-12-03 08:00:00,47.7,-6.2,29.97,SSE,158,1.5,2.0,1,0.00,,,0.00,WUHU216HW,2013-12-03 13:00:00,
2013-12-03 08:05:00,47.9,-6.0,29.97,SSE,158,1.1,2.0,1,0.00,,,0.00,WUHU216HW,2013-12-03 13:05:00,
2013-12-03 08:10:00,48.1,-5.9,29.97,South,180,0.9,1.8,1,0.00,,,0.00,WUHU216HW,2013-12-03 13:10:00,
2013-12-03 08:15:00,48.2,-5.8,29.98,SSE,158,1.1,1.8,1,0.00,,,0.00,WUHU216HW,2013-12-03 13:15:00,
2013-12-03 08:21:00,48.6,-5.5,29.97,South,180,0.9,1.3,1,0.00,,,0.00,WUHU216HW,2013-12-03 13:21:00,
2013-12-03 08:26:00,48.8,-5.4,29.98,South,180,1.6,1.6,1,0.00,,,0.00,WUHU216HW,2013-12-03 13:26:00,
2013-12-03 08:31:00,49.3,-5.0,29.97,South,180,2.5,3.4,1,0.00,,,0.00,WUHU216HW,2013-12-03 13:31:00,
2013-12-03 08:36:00,49.5,-4.8,29.98,South,180,2.5,3.4,1,0.00,,,0.00,WUHU216HW,2013-12-03 13:36:00,
2013-12-03 08:41:00,49.9,-4.6,29.98,SSE,158,3.8,3.8,1,0.00,,,0.00,WUHU216HW,2013-12-03 13:41:00,
2013-12-03 08:46:00,50.0,-4.5,29.98,SSE,158,2.7,4.0,1,0.00,,,0.00,WUHU216HW,2013-12-03 13:46:00,
2013-12-03 08:51:00,50.0,-4.5,29.98,South,180,2.2,4.0,1,0.00,,,0.00,WUHU216HW,2013-12-03 13:51:00,
2013-12-03 08:56:00,50.8,-4.0,29.99,South,180,2.5,2.7,1,0.00,,,0.00,WUHU216HW,2013-12-03 13:56:00,
2013-12-03 09:01:00,51.1,-3.6,29.99,SSW,198,0.8,2.5,1,0.00,,,0.00,WUHU216HW,2013-12-03 14:01:00,
2013-12-03 09:06:00,51.5,-3.3,29.99,SW,215,1.0,2.5,1,0.00,,,0.00,WUHU216HW,2013-12-03 14:06:00,
2013-12-03 09:11:00,51.5,-3.3,29.99,South,169,1.4,2.0,1,0.00,,,0.00,WUHU216HW,2013-12-03 14:11:00,
2013-12-03 09:16:00,52.0,-2.9,29.99,SSE,158,2.5,2.5,1,0.00,,,0.00,WUHU216HW,2013-12-03 14:16:00,
2013-12-03 09:21:00,52.6,-2.5,29.99,WSW,248,2.9,3.6,1,0.00,,,0.00,WUHU216HW,2013-12-03 14:21:00,
2013-12-03 09:27:00,53.1,-2.1,30.00,SW,219,2.2,3.6,1,0.00,,,0.00,WUHU216HW,2013-12-03 14:27:00,
2013-12-03 09:32:00,53.6,-1.6,30.00,SW,225,3.4,3.4,1,0.00,,,0.00,WUHU216HW,2013-12-03 14:32:00,
2013-12-03 09:37:00,54.5,-0.9,30.00,WSW,257,3.8,5.4,1,0.00,,,0.00,WUHU216HW,2013-12-03 14:37:00,
2013-12-03 09:42:00,54.7,-0.7,30.00,SSW,203,2.2,5.4,1,0.00,,,0.00,WUHU216HW,2013-12-03 14:42:00,
2013-12-03 09:47:00,54.9,-0.6,30.00,SW,222,2.8,4.0,1,0.00,,,0.00,WUHU216HW,2013-12-03 14:47:00,
2013-12-03 09:52:00,55.3,-0.4,30.01,South,176,1.9,4.0,1,0.00,,,0.00,WUHU216HW,2013-12-03 14:52:00,
2013-12-03 09:57:00,55.6,-0.1,30.00,SW,232,1.9,2.5,1,0.00,,,0.00,WUHU216HW,2013-12-03 14:57:00,
2013-12-03 10:02:00,56.0,0.2,30.00,SW,225,3.6,3.6,1,0.00,,,0.00,WUHU216HW,2013-12-03 15:02:00,
2013-12-03 10:07:00,56.5,0.5,30.01,SSW,203,3.1,3.6,1,0.00,,,0.00,WUHU216HW,2013-12-03 15:07:00,
2013-12-03 10:12:00,56.5,0.5,30.01,SW,235,2.0,3.6,1,0.00,,,0.00,WUHU216HW,2013-12-03 15:12:00,
2013-12-03 10:17:00,56.3,0.5,30.01,SSW,209,1.4,3.1,1,0.00,,,0.00,WUHU216HW,2013-12-03 15:17:00,
2013-12-03 10:22:00,56.3,0.5,30.02,SSW,203,2.5,2.5,1,0.00,,,0.00,WUHU216HW,2013-12-03 15:22:00,
2013-12-03 10:27:00,56.5,0.5,30.02,SW,225,3.4,3.4,1,0.00,,,0.00,WUHU216HW,2013-12-03 15:27:00,
2013-12-03 10:32:00,57.1,1.0,30.02,SW,225,1.1,3.4,1,0.00,,,0.00,WUHU216HW,2013-12-03 15:32:00,
2013-12-03 10:38:00,57.8,1.5,30.02,South,180,3.0,3.4,1,0.00,,,0.00,WUHU216HW,2013-12-03 15:38:00,
2013-12-03 10:43:00,58.0,1.6,30.01,SSW,195,2.0,3.1,1,0.00,,,0.00,WUHU216HW,2013-12-03 15:43:00,
2013-12-03 10:48:00,58.1,1.8,30.01,WSW,248,2.5,2.9,3,0.00,,,0.00,WUHU216HW,2013-12-03 15:48:00,
2013-12-03 10:53:00,58.1,1.8,30.01,WSW,248,2.7,2.7,5,0.00,,,0.00,WUHU216HW,2013-12-03 15:53:00,
2013-12-03 10:58:00,58.1,1.8,30.01,SSE,158,4.7,4.7,6,0.00,,,0.00,WUHU216HW,2013-12-03 15:58:00,
2013-12-03 11:03:00,58.5,2.1,30.01,SW,225,2.5,4.7,7,0.00,,,0.00,WUHU216HW,2013-12-03 16:03:00,
2013-12-03 11:08:00,58.3,2.0,30.01,SSW,201,3.5,4.5,10,0.00,,,0.00,WUHU216HW,2013-12-03 16:08:00,
2013-12-03 11:13:00,58.3,3.5,30.01,SW,216,2.1,4.5,11,0.00,,,0.00,WUHU216HW,2013-12-03 16:13:00,
2013-12-03 11:18:00,58.3,2.0,30.01,WSW,237,1.6,3.1,10,0.00,,,0.00,WUHU216HW,2013-12-03 16:18:00,
2013-12-03 11:23:00,58.9,2.3,30.00,South,185,2.1,4.0,8,0.00,,,0.00,WUHU216HW,2013-12-03 16:23:00,
2013-12-03 11:28:00,59.0,2.5,30.00,SSW,203,2.2,4.0,9,0.00,,,0.00,WUHU216HW,2013-12-03 16:28:00,
2013-12-03 11:33:00,59.4,10.5,30.00,SW,225,3.4,3.6,15,0.00,,,0.00,WUHU216HW,2013-12-03 16:33:00,
2013-12-03 11:38:00,59.4,15.2,30.00,WSW,247,4.5,4.7,18,0.00,,,0.00,WUHU216HW,2013-12-03 16:38:00,
2013-12-03 11:44:00,59.6,13.9,29.99,South,180,4.5,4.7,17,0.00,,,0.00,WUHU216HW,2013-12-03 16:44:00,
2013-12-03 11:49:00,59.8,17.1,29.99,WSW,248,3.8,4.5,19,0.00,,,0.00,WUHU216HW,2013-12-03 16:49:00,
2013-12-03 11:54:00,59.8,19.6,29.99,South,180,1.8,4.5,21,0.00,,,0.00,WUHU216HW,2013-12-03 16:54:00,
2013-12-03 11:59:00,59.9,20.7,29.99,South,180,4.7,5.8,22,0.00,,,0.00,WUHU216HW,2013-12-03 16:59:00,
2013-12-03 12:04:00,60.3,23.0,29.98,SSW,203,3.4,7.2,24,0.00,,,0.00,WUHU216HW,2013-12-03 17:04:00,
2013-12-03 12:09:00,60.7,27.1,29.98,SSW,203,4.3,7.2,28,0.00,,,0.00,WUHU216HW,2013-12-03 17:09:00,
2013-12-03 12:14:00,60.8,26.3,29.98,SSW,207,4.0,4.3,27,0.00,,,0.00,WUHU216HW,2013-12-03 17:14:00,
2013-12-03 12:19:00,61.0,27.5,29.97,SSW,203,3.6,4.3,28,0.00,,,0.00,WUHU216HW,2013-12-03 17:19:00,
2013-12-03 12:24:00,61.2,28.5,29.97,WSW,248,1.8,3.8,29,0.00,,,0.00,WUHU216HW,2013-12-03 17:24:00,
2013-12-03 12:29:00,61.4,31.8,29.97,SW,225,2.5,3.6,33,0.00,,,0.00,WUHU216HW,2013-12-03 17:29:00,
2013-12-03 12:34:00,61.0,31.5,29.97,SSW,203,4.3,4.3,33,0.00,,,0.00,WUHU216HW,2013-12-03 17:34:00,
2013-12-03 12:39:00,61.0,31.5,29.97,South,170,3.9,4.3,33,0.00,,,0.00,WUHU216HW,2013-12-03 17:39:00,
2013-12-03 12:44:00,60.8,31.3,29.97,SW,225,4.0,4.0,33,0.00,,,0.00,WUHU216HW,2013-12-03 17:44:00,
2013-12-03 12:49:00,60.7,31.1,29.97,SSE,158,5.8,5.8,33,0.00,,,0.00,WUHU216HW,2013-12-03 17:49:00,
2013-12-03 12:55:00,60.5,31.8,29.97,South,180,3.4,5.8,34,0.00,,,0.00,WUHU216HW,2013-12-03 17:55:00,
2013-12-03 13:00:00,60.7,31.1,29.97,SW,225,3.1,5.8,33,0.00,,,0.00,WUHU216HW,2013-12-03 18:00:00,
2013-12-03 13:05:00,60.8,31.3,29.97,SE,135,4.7,5.8,33,0.00,,,0.00,WUHU216HW,2013-12-03 18:05:00,
2013-12-03 13:10:00,60.8,32.0,29.97,South,177,3.9,6.0,34,0.00,,,0.00,WUHU216HW,2013-12-03 18:10:00,
2013-12-03 13:15:00,60.8,32.0,29.97,SSW,203,2.0,6.0,34,0.00,,,0.00,WUHU216HW,2013-12-03 18:15:00,
2013-12-03 13:20:00,61.0,31.5,29.96,SSE,158,4.7,4.7,33,0.00,,,0.00,WUHU216HW,2013-12-03 18:20:00,
2013-12-03 13:25:00,61.2,31.7,29.96,South,180,5.6,5.6,33,0.00,,,0.00,WUHU216HW,2013-12-03 18:25:00,
2013-12-03 13:30:00,61.4,31.8,29.96,South,180,4.5,5.6,33,0.00,,,0.00,WUHU216HW,2013-12-03 18:30:00,
2013-12-03 13:35:00,61.7,31.4,29.96,SSE,162,6.5,7.8,32,0.00,,,0.00,WUHU216HW,2013-12-03 18:35:00,
2013-12-03 13:40:00,62.1,32.5,29.95,SSW,212,2.8,7.8,33,0.00,,,0.00,WUHU216HW,2013-12-03 18:40:00,
2013-12-03 13:45:00,62.3,32.6,29.95,SE,135,3.8,4.0,33,0.00,,,0.00,WUHU216HW,2013-12-03 18:45:00,
2013-12-03 13:50:00,62.5,33.5,29.95,SSW,203,5.1,5.1,34,0.00,,,0.00,WUHU216HW,2013-12-03 18:50:00,
2013-12-03 13:56:00,62.5,34.9,29.95,South,180,4.2,6.0,36,0.00,,,0.00,WUHU216HW,2013-12-03 18:56:00,
2013-12-03 14:01:00,62.3,35.5,29.95,SSW,203,2.9,6.0,37,0.00,,,0.00,WUHU216HW,2013-12-03 19:01:00,
2013-12-03 14:06:00,62.5,34.9,29.95,SSE,153,3.0,4.0,36,0.00,,,0.00,WUHU216HW,2013-12-03 19:06:00,
2013-12-03 14:11:00,62.5,34.9,29.95,SSE,165,2.1,4.0,36,0.00,,,0.00,WUHU216HW,2013-12-03 19:11:00,
2013-12-03 14:16:00,62.5,35.6,29.96,West,270,1.6,2.7,37,0.00,,,0.00,WUHU216HW,2013-12-03 19:16:00,
2013-12-03 14:21:00,62.3,36.2,29.96,South,189,2.1,4.5,38,0.00,,,0.00,WUHU216HW,2013-12-03 19:21:00,
2013-12-03 14:26:00,61.9,35.9,29.95,SE,135,2.7,4.5,38,0.00,,,0.00,WUHU216HW,2013-12-03 19:26:00,
2013-12-03 14:31:00,61.9,35.2,29.96,South,180,1.3,2.7,37,0.00,,,0.00,WUHU216HW,2013-12-03 19:31:00,
2013-12-03 14:36:00,61.9,35.2,29.96,South,187,4.3,5.4,37,0.00,,,0.00,WUHU216HW,2013-12-03 19:36:00,
2013-12-03 14:41:00,61.6,34.8,29.96,SSE,158,3.1,5.4,37,0.00,,,0.00,WUHU216HW,2013-12-03 19:41:00,
2013-12-03 14:46:00,61.2,34.6,29.96,SW,231,2.7,3.1,37,0.00,,,0.00,WUHU216HW,2013-12-03 19:46:00,
2013-12-03 14:51:00,61.0,34.4,29.96,SSE,158,4.3,4.3,37,0.00,,,0.00,WUHU216HW,2013-12-03 19:51:00,
2013-12-03 14:56:00,60.8,33.5,29.96,SSE,158,3.1,4.3,36,0.00,,,0.00,WUHU216HW,2013-12-03 19:56:00,
2013-12-03 15:01:00,60.5,33.2,29.96,WSW,248,2.5,4.3,36,0.00,,,0.00,WUHU216HW,2013-12-03 20:01:00,
2013-12-03 15:07:00,60.1,32.1,29.96,South,180,3.6,3.6,35,0.00,,,0.00,WUHU216HW,2013-12-03 20:07:00,
2013-12-03 15:12:00,59.8,31.2,29.96,SSE,158,1.8,3.6,34,0.00,,,0.00,WUHU216HW,2013-12-03 20:12:00,
2013-12-03 15:17:00,59.2,30.0,29.96,SW,225,3.6,3.8,33,0.00,,,0.00,WUHU216HW,2013-12-03 20:17:00,
2013-12-03 15:22:00,59.0,29.2,29.96,SW,225,2.5,3.8,32,0.00,,,0.00,WUHU216HW,2013-12-03 20:22:00,
2013-12-03 15:27:00,58.9,28.3,29.96,SSW,201,1.5,3.6,31,0.00,,,0.00,WUHU216HW,2013-12-03 20:27:00,
2013-12-03 15:32:00,58.7,27.4,29.96,SSE,158,2.0,2.5,30,0.00,,,0.00,WUHU216HW,2013-12-03 20:32:00,
2013-12-03 15:37:00,58.9,26.6,29.95,South,180,4.0,4.0,29,0.00,,,0.00,WUHU216HW,2013-12-03 20:37:00,
2013-12-03 15:42:00,59.0,25.7,29.96,South,180,1.6,4.0,28,0.00,,,0.00,WUHU216HW,2013-12-03 20:42:00,
2013-12-03 15:47:00,59.0,25.7,29.96,South,180,1.3,4.0,28,0.00,,,0.00,WUHU216HW,2013-12-03 20:47:00,
2013-12-03 15:52:00,59.2,24.9,29.96,South,180,3.1,3.1,27,0.00,,,0.00,WUHU216HW,2013-12-03 20:52:00,
2013-12-03 15:57:00,59.2,24.9,29.95,SSE,158,2.2,3.8,27,0.00,,,0.00,WUHU216HW,2013-12-03 20:57:00,
2013-12-03 16:02:00,59.0,25.7,29.96,South,180,3.4,3.8,28,0.00,,,0.00,WUHU216HW,2013-12-03 21:02:00,
2013-12-03 16:08:00,59.0,25.7,29.96,South,180,1.8,3.4,28,0.00,,,0.00,WUHU216HW,2013-12-03 21:08:00,
2013-12-03 16:13:00,58.9,25.7,29.97,South,180,1.3,3.4,28,0.00,,,0.00,WUHU216HW,2013-12-03 21:13:00,
2013-12-03 16:18:00,58.7,24.5,29.97,WSW,248,0.4,1.8,27,0.00,,,0.00,WUHU216HW,2013-12-03 21:18:00,
2013-12-03 16:23:00,58.3,24.2,29.97,WSW,248,0.0,1.3,27,0.00,,,0.00,WUHU216HW,2013-12-03 21:23:00,
2013-12-03 16:28:00,58.1,24.0,29.97,South,180,0.4,0.4,27,0.00,,,0.00,WUHU216HW,2013-12-03 21:28:00,
2013-12-03 16:33:00,58.1,22.1,29.97,South,180,0.0,0.4,25,0.00,,,0.00,WUHU216HW,2013-12-03 21:33:00,
2013-12-03 16:38:00,58.0,21.0,29.97,SSE,158,0.0,0.4,24,0.00,,,0.00,WUHU216HW,2013-12-03 21:38:00,
2013-12-03 16:43:00,57.6,19.7,29.97,SSE,158,1.1,1.1,23,0.00,,,0.00,WUHU216HW,2013-12-03 21:43:00,
2013-12-03 16:48:00,57.6,18.7,29.97,SE,135,0.4,1.1,22,0.00,,,0.00,WUHU216HW,2013-12-03 21:48:00,
2013-12-03 16:53:00,57.2,17.6,29.97,SE,135,0.0,1.1,21,0.00,,,0.00,WUHU216HW,2013-12-03 21:53:00,
2013-12-03 16:58:00,57.2,16.6,29.97,SE,135,0.0,0.4,20,0.00,,,0.00,WUHU216HW,2013-12-03 21:58:00,
2013-12-03 17:03:00,57.1,16.4,29.97,ESE,113,0.7,0.7,20,0.00,,,0.00,WUHU216HW,2013-12-03 22:03:00,
2013-12-03 17:08:00,56.9,13.1,29.97,ESE,113,0.2,0.9,18,0.00,,,0.00,WUHU216HW,2013-12-03 22:08:00,
2013-12-03 17:14:00,56.9,11.6,29.98,South,180,1.1,1.1,17,0.00,,,0.00,WUHU216HW,2013-12-03 22:14:00,
2013-12-03 17:19:00,56.5,8.3,29.98,SW,226,1.0,1.1,15,0.00,,,0.00,WUHU216HW,2013-12-03 22:19:00,
2013-12-03 17:24:00,56.2,3.4,29.97,South,175,0.4,1.1,12,0.00,,,0.00,WUHU216HW,2013-12-03 22:24:00,
2013-12-03 17:29:00,56.2,3.4,29.97,SE,135,0.0,0.4,12,0.00,,,0.00,WUHU216HW,2013-12-03 22:29:00,
2013-12-03 17:34:00,55.8,0.1,29.97,ESE,113,0.4,0.4,8,0.00,,,0.00,WUHU216HW,2013-12-03 22:34:00,
2013-12-03 17:39:00,55.6,-0.1,29.97,South,180,0.7,0.7,6,0.00,,,0.00,WUHU216HW,2013-12-03 22:39:00,
2013-12-03 17:44:00,55.4,-0.2,29.97,SE,135,0.0,0.7,3,0.00,,,0.00,WUHU216HW,2013-12-03 22:44:00,
2013-12-03 17:49:00,55.3,-0.4,29.97,ESE,113,0.0,0.7,1,0.00,,,0.00,WUHU216HW,2013-12-03 22:49:00,
2013-12-03 17:54:00,55.3,-0.4,29.97,SE,135,0.7,0.7,1,0.00,,,0.00,WUHU216HW,2013-12-03 22:54:00,
2013-12-03 17:59:00,55.3,-0.4,29.97,ESE,113,1.1,1.1,1,0.00,,,0.00,WUHU216HW,2013-12-03 22:59:00,
2013-12-03 18:04:00,55.1,-0.4,29.98,ESE,113,0.4,1.1,1,0.00,,,0.00,WUHU216HW,2013-12-03 23:04:00,
2013-12-03 18:09:00,55.1,-0.4,29.98,NE,45,0.2,0.4,1,0.00,,,0.00,WUHU216HW,2013-12-03 23:09:00,
2013-12-03 18:14:00,55.1,-0.4,29.98,ENE,68,0.0,0.4,1,0.00,,,0.00,WUHU216HW,2013-12-03 23:14:00,
2013-12-03 18:19:00,55.1,-0.4,29.98,East,95,0.6,0.7,1,0.00,,,0.00,WUHU216HW,2013-12-03 23:19:00,
2013-12-03 18:25:00,54.9,-0.6,29.99,SE,135,0.5,0.7,1,0.00,,,0.00,WUHU216HW,2013-12-03 23:25:00,
2013-12-03 18:30:00,54.9,-0.6,29.99,SE,135,0.0,0.7,1,0.00,,,0.00,WUHU216HW,2013-12-03 23:30:00,
2013-12-03 18:35:00,54.9,-0.6,29.99,SE,135,0.0,0.0,1,0.00,,,0.00,WUHU216HW,2013-12-03 23:35:00,
2013-12-03 18:40:00,54.9,-0.6,29.99,SSE,158,0.4,0.4,1,0.00,,,0.00,WUHU216HW,2013-12-03 23:40:00,
2013-12-03 18:45:00,54.7,-0.7,29.99,SSE,158,1.8,1.8,1,0.00,,,0.00,WUHU216HW,2013-12-03 23:45:00,
2013-12-03 18:50:00,54.9,-0.6,29.99,SE,135,2.0,3.1,1,0.00,,,0.00,WUHU216HW,2013-12-03 23:50:00,
2013-12-03 18:55:00,54.9,-0.6,29.99,South,186,0.4,3.1,1,0.00,,,0.00,WUHU216HW,2013-12-03 23:55:00,
2013-12-03 19:00:00,54.7,-0.7,30.00,SE,135,2.2,2.9,1,0.00,,,0.00,WUHU216HW,2013-12-04 00:00:00,
2013-12-03 19:05:00,54.7,-0.7,29.99,South,172,1.8,3.6,1,0.00,,,0.00,WUHU216HW,2013-12-04 00:05:00,
2013-12-03 19:10:00,54.7,-0.7,30.00,ENE,69,1.3,3.6,1,0.00,,,0.00,WUHU216HW,2013-12-04 00:10:00,
2013-12-03 19:15:00,54.7,-0.7,29.99,SE,135,1.1,1.8,1,0.00,,,0.00,WUHU216HW,2013-12-04 00:15:00,
2013-12-03 19:20:00,54.7,-0.7,29.99,ESE,113,1.3,1.3,1,0.00,,,0.00,WUHU216HW,2013-12-04 00:20:00,
2013-12-03 19:26:00,54.7,-0.7,29.99,ESE,104,1.1,1.3,1,0.00,,,0.00,WUHU216HW,2013-12-04 00:26:00,
2013-12-03 19:31:00,54.7,-0.7,30.00,ESE,113,0.9,1.3,1,0.00,,,0.00,WUHU216HW,2013-12-04 00:31:00,
2013-12-03 19:36:00,54.7,-0.7,30.00,East,90,0.2,0.9,1,0.00,,,0.00,WUHU216HW,2013-12-04 00:36:00,
2013-12-03 19:41:00,54.5,-0.9,30.00,SE,137,0.3,0.7,1,0.00,,,0.00,WUHU216HW,2013-12-04 00:41:00,
2013-12-03 19:46:00,54.5,-0.9,30.01,East,90,0.0,0.7,1,0.00,,,0.00,WUHU216HW,2013-12-04 00:46:00,
2013-12-03 19:51:00,54.5,-0.9,30.00,ESE,113,0.0,0.0,1,0.00,,,0.00,WUHU216HW,2013-12-04 00:51:00,
2013-12-03 19:56:00,54.5,-0.9,30.00,SE,135,0.0,0.0,1,0.00,,,0.00,WUHU216HW,2013-12-04 00:56:00,
2013-12-03 20:01:00,54.4,-1.1,30.00,SSE,158,1.1,1.1,1,0.00,,,0.00,WUHU216HW,2013-12-04 01:01:00,
2013-12-03 20:06:00,54.4,-1.1,30.00,ESE,123,0.7,1.3,1,0.00,,,0.00,WUHU216HW,2013-12-04 01:06:00,
2013-12-03 20:11:00,54.5,-0.9,29.99,ESE,122,2.1,3.4,1,0.00,,,0.00,WUHU216HW,2013-12-04 01:11:00,
2013-12-03 20:16:00,54.5,-0.9,30.00,SSE,151,0.4,3.4,1,0.00,,,0.00,WUHU216HW,2013-12-04 01:16:00,
2013-12-03 20:21:00,54.4,-1.1,30.00,ESE,113,1.3,2.2,1,0.00,,,0.00,WUHU216HW,2013-12-04 01:21:00,
2013-12-03 20:27:00,54.4,-1.1,30.00,ESE,113,0.4,1.8,1,0.00,,,0.00,WUHU216HW,2013-12-04 01:27:00,
2013-12-03 20:32:00,54.4,-1.1,30.00,ESE,116,0.3,1.8,1,0.00,,,0.00,WUHU216HW,2013-12-04 01:32:00,
2013-12-03 20:37:00,54.4,-1.1,30.00,East,90,0.2,0.7,1,0.00,,,0.00,WUHU216HW,2013-12-04 01:37:00,
2013-12-03 20:42:00,54.4,-1.1,30.00,SE,135,0.2,0.2,1,0.00,,,0.00,WUHU216HW,2013-12-04 01:42:00,
2013-12-03 20:47:00,54.4,-1.1,30.00,NE,45,0.0,0.2,1,0.00,,,0.00,WUHU216HW,2013-12-04 01:47:00,
2013-12-03 20:52:00,54.4,-1.1,30.00,SE,135,0.0,0.4,1,0.00,,,0.00,WUHU216HW,2013-12-04 01:52:00,
2013-12-03 20:57:00,54.4,-1.1,30.00,ESE,113,0.2,0.4,1,0.00,,,0.00,WUHU216HW,2013-12-04 01:57:00,
2013-12-03 21:02:00,54.4,-1.1,30.00,SSE,158,0.4,0.4,1,0.00,,,0.00,WUHU216HW,2013-12-04 02:02:00,
2013-12-03 21:07:00,54.2,-1.2,30.00,SSE,158,0.4,1.1,1,0.02,,,0.02,WUHU216HW,2013-12-04 02:07:00,
2013-12-03 21:12:00,54.2,-1.2,30.00,South,180,0.0,1.1,1,0.04,,,0.04,WUHU216HW,2013-12-04 02:12:00,
2013-12-03 21:18:00,54.2,-1.2,30.00,ESE,113,0.2,0.2,1,0.04,,,0.04,WUHU216HW,2013-12-04 02:18:00,
2013-12-03 21:23:00,54.0,-1.3,30.00,ENE,68,0.0,0.2,1,0.04,,,0.04,WUHU216HW,2013-12-04 02:23:00,
2013-12-03 21:28:00,54.0,-1.3,30.00,ESE,113,0.0,0.2,1,0.04,,,0.04,WUHU216HW,2013-12-04 02:28:00,
2013-12-03 21:33:00,54.0,-1.3,30.00,ESE,114,0.6,1.1,1,0.04,,,0.04,WUHU216HW,2013-12-04 02:33:00,
2013-12-03 21:38:00,54.0,-1.3,30.00,SSE,158,0.0,1.1,1,0.05,,,0.05,WUHU216HW,2013-12-04 02:38:00,
2013-12-03 21:43:00,53.8,-1.4,30.00,SE,135,0.0,0.4,1,0.05,,,0.05,WUHU216HW,2013-12-04 02:43:00,
2013-12-03 21:48:00,53.8,-1.4,30.00,North,0,0.0,0.0,1,0.05,,,0.05,WUHU216HW,2013-12-04 02:48:00,
2013-12-03 21:53:00,53.8,-1.4,30.00,ESE,113,0.0,0.0,1,0.05,,,0.05,WUHU216HW,2013-12-04 02:53:00,
2013-12-03 21:58:00,53.8,-1.4,30.00,ESE,113,0.0,0.0,1,0.05,,,0.05,WUHU216HW,2013-12-04 02:58:00,
2013-12-03 22:03:00,53.8,-1.4,30.00,NE,45,0.0,0.2,1,0.05,,,0.05,WUHU216HW,2013-12-04 03:03:00,
2013-12-03 22:09:00,53.8,-1.4,30.00,NE,45,0.4,0.4,1,0.02,,,0.05,WUHU216HW,2013-12-04 03:09:00,
2013-12-03 22:14:00,53.8,-1.4,30.01,SE,135,0.0,0.4,1,0.01,,,0.05,WUHU216HW,2013-12-04 03:14:00,
2013-12-03 22:19:00,53.8,-1.4,30.01,SE,135,0.0,0.0,1,0.01,,,0.05,WUHU216HW,2013-12-04 03:19:00,
2013-12-03 22:24:00,53.8,-1.4,30.00,ESE,113,0.0,0.0,1,0.01,,,0.05,WUHU216HW,2013-12-04 03:24:00,
2013-12-03 22:29:00,53.6,-1.6,30.00,ESE,113,0.0,0.0,1,0.01,,,0.05,WUHU216HW,2013-12-04 03:29:00,
2013-12-03 22:34:00,53.6,-1.6,30.01,East,90,0.0,0.0,1,0.02,,,0.06,WUHU216HW,2013-12-04 03:34:00,
2013-12-03 22:39:00,53.6,-1.6,30.01,ESE,113,0.0,0.2,1,0.01,,,0.06,WUHU216HW,2013-12-04 03:39:00,
2013-12-03 22:44:00,53.6,-1.6,30.01,East,90,0.0,0.4,1,0.02,,,0.07,WUHU216HW,2013-12-04 03:44:00,
2013-12-03 22:49:00,53.6,-1.6,30.01,ENE,68,0.0,0.4,1,0.02,,,0.07,WUHU216HW,2013-12-04 03:49:00,
2013-12-03 22:54:00,53.6,-1.6,30.01,NE,45,0.8,1.1,1,0.02,,,0.07,WUHU216HW,2013-12-04 03:54:00,
2013-12-03 23:00:00,53.6,-1.6,30.02,NE,45,0.7,1.1,1,0.02,,,0.07,WUHU216HW,2013-12-04 04:00:00,
2013-12-03 23:05:00,53.6,-1.6,30.02,North,0,0.0,0.7,1,0.02,,,0.07,WUHU216HW,2013-12-04 04:05:00,
2013-12-03 23:10:00,53.6,-1.6,30.02,NNW,338,0.0,0.4,1,0.03,,,0.08,WUHU216HW,2013-12-04 04:10:00,
2013-12-03 23:15:00,53.6,-1.6,30.02,NNW,338,0.0,0.0,1,0.03,,,0.08,WUHU216HW,2013-12-04 04:15:00,
2013-12-03 23:20:00,53.6,-1.6,30.03,NNE,23,0.4,0.4,1,0.03,,,0.08,WUHU216HW,2013-12-04 04:20:00,
2013-12-03 23:25:00,53.6,-1.6,30.03,NNE,17,0.5,0.9,1,0.03,,,0.08,WUHU216HW,2013-12-04 04:25:00,
2013-12-03 23:30:00,53.6,-1.6,30.02,NNW,338,0.4,0.9,1,0.03,,,0.08,WUHU216HW,2013-12-04 04:30:00,
2013-12-03 23:35:00,53.6,-1.6,30.02,NE,45,0.0,0.7,1,0.03,,,0.09,WUHU216HW,2013-12-04 04:35:00,
2013-12-03 23:40:00,53.6,-1.6,30.02,NE,45,0.0,0.7,1,0.04,,,0.10,WUHU216HW,2013-12-04 04:40:00,
2013-12-03 23:45:00,53.6,-1.6,30.03,NE,45,0.0,0.0,1,0.03,,,0.10,WUHU216HW,2013-12-04 04:45:00,
2013-12-03 23:50:00,53.6,-1.6,30.02,NNW,338,0.0,0.0,1,0.03,,,0.10,WUHU216HW,2013-12-04 04:50:00,
2013-12-03 23:55:00,53.6,-1.6,30.02,North,0,0.0,0.0,1,0.03,,,0.10,WUHU216HW,2013-12-04 04:55:00,